Powrót do katalogu

SL-14 DEB

AktywnyPO
NORAD 45311·DEBRIS·🇷🇺 Russia

Wystrzelony Aug 15, 1991 z Plesetsk Cosmodrome

Loading…

Następne Przeloty (najbliższe 24 godziny)

TLE

ŚwieżeSource: Space-Track

Epoka: Sep 14, 2026, 10:57 UTC

1 45311U 91056AZ  26257.45636306  .00000121  00000-0  27359-3 0  9993
2 45311  82.5458  70.3877 0017485 241.1243 118.8126 13.18868932315377

Śledź SL-14 DEB w czasie rzeczywistym z AllMySat

Download on the App Store